• Em Portugal
  • Lista de países
  • Para 7 dias
  • Temperatura da água
  • Mapas de satélite
  • Mapa do tempo
  • Widgets de tempo
  • user-avatar
    Iniciar Sessão

    Previsão horária em Czarnkowo

    Hoje, 18 Agosto, Sábado

    Tempo Temperatura Precipitação Vento Pressão Humidade
    00:00 +19°C° 0,6 mm 3 m/s 757 mmHg 92%
    01:00 +18°C° 0 mm 3 m/s 758 mmHg 93%
    02:00 +18°C° 0,3 mm 3 m/s 758 mmHg 93%
    03:00 +18°C° 0,3 mm 3 m/s 758 mmHg 94%
    04:00 +17°C° 0,3 mm 3 m/s 758 mmHg 95%
    05:00 +18°C° 0 mm 3 m/s 759 mmHg 92%
    06:00 +18°C° 0 mm 3 m/s 759 mmHg 88%
    07:00 +19°C° 0 mm 2 m/s 759 mmHg 85%
    08:00 +20°C° 0 mm 2 m/s 759 mmHg 77%
    09:00 +23°C° 0 mm 2 m/s 760 mmHg 69%
    10:00 +24°C° 0 mm 2 m/s 760 mmHg 61%
    11:00 +25°C° 0 mm 2 m/s 760 mmHg 56%
    12:00 +25°C° 0 mm 2 m/s 760 mmHg 51%
    13:00 +26°C° 0 mm 2 m/s 760 mmHg 48%
    14:00 +26°C° 0 mm 2 m/s 760 mmHg 47%
    15:00 +26°C° 0 mm 2 m/s 759 mmHg 46%
    16:00 +26°C° 0 mm 2 m/s 759 mmHg 45%
    17:00 +25°C° 0 mm 2 m/s 759 mmHg 49%
    18:00 +24°C° 0 mm 1 m/s 759 mmHg 53%
    19:00 +22°C° 0 mm 1 m/s 759 mmHg 58%
    20:00 +21°C° 0 mm 1 m/s 759 mmHg 58%
    21:00 +21°C° 0 mm 1 m/s 760 mmHg 59%
    22:00 +20°C° 0 mm 1 m/s 760 mmHg 60%
    23:00 +19°C° 0 mm 1 m/s 760 mmHg 61%

    Amanhã, 19 Agosto, Domingo

    Tempo Temperatura Precipitação Vento Pressão Humidade
    00:00 +19°C° 0 mm 1 m/s 760 mmHg 62%
    01:00 +18°C° 0 mm 2 m/s 760 mmHg 63%
    02:00 +17°C° 0 mm 2 m/s 760 mmHg 65%
    03:00 +17°C° 0 mm 2 m/s 760 mmHg 67%
    04:00 +17°C° 0 mm 2 m/s 760 mmHg 69%
    05:00 +18°C° 0 mm 2 m/s 760 mmHg 69%
    06:00 +19°C° 0 mm 1 m/s 760 mmHg 68%
    07:00 +20°C° 0 mm 1 m/s 760 mmHg 67%
    08:00 +21°C° 0 mm 2 m/s 760 mmHg 62%
    09:00 +24°C° 0 mm 2 m/s 760 mmHg 58%
    10:00 +25°C° 0 mm 2 m/s 760 mmHg 53%
    11:00 +26°C° 0 mm 2 m/s 760 mmHg 51%
    12:00 +27°C° 0 mm 3 m/s 760 mmHg 48%
    13:00 +28°C° 0 mm 3 m/s 759 mmHg 46%
    14:00 +28°C° 0 mm 2 m/s 759 mmHg 46%
    15:00 +28°C° 0 mm 2 m/s 759 mmHg 46%
    16:00 +28°C° 0 mm 2 m/s 758 mmHg 45%
    17:00 +27°C° 0 mm 2 m/s 758 mmHg 50%
    18:00 +26°C° 0 mm 1 m/s 758 mmHg 54%
    19:00 +24°C° 0 mm 1 m/s 758 mmHg 59%
    20:00 +23°C° 0 mm 1 m/s 757 mmHg 59%
    21:00 +23°C° 0 mm 1 m/s 757 mmHg 60%
    22:00 +21°C° 0 mm 2 m/s 757 mmHg 60%
    23:00 +21°C° 0 mm 2 m/s 757 mmHg 60%

    Depois de amanhã, 20 Agosto, Segunda-feira

    Tempo Temperatura Precipitação Vento Pressão Humidade
    00:00 +20°C° 0 mm 2 m/s 757 mmHg 60%
    01:00 +20°C° 0 mm 2 m/s 756 mmHg 60%
    02:00 +19°C° 0 mm 2 m/s 756 mmHg 61%
    03:00 +19°C° 0 mm 3 m/s 756 mmHg 62%
    04:00 +19°C° 0 mm 3 m/s 755 mmHg 64%
    05:00 +19°C° 0 mm 3 m/s 755 mmHg 65%
    06:00 +20°C° 0 mm 3 m/s 755 mmHg 66%
    07:00 +21°C° 0 mm 3 m/s 755 mmHg 67%
    08:00 +23°C° 0 mm 4 m/s 755 mmHg 63%
    09:00 +25°C° 0 mm 5 m/s 755 mmHg 60%
    10:00 +26°C° 0 mm 6 m/s 755 mmHg 56%
    11:00 +26°C° 0,1 mm 6 m/s 755 mmHg 58%
    12:00 +26°C° 0,1 mm 6 m/s 755 mmHg 60%
    13:00 +26°C° 0,1 mm 6 m/s 755 mmHg 63%
    14:00 +24°C° 0,1 mm 6 m/s 755 mmHg 64%
    15:00 +24°C° 0,1 mm 6 m/s 755 mmHg 65%
    16:00 +23°C° 0,1 mm 6 m/s 755 mmHg 66%
    17:00 +22°C° 0 mm 6 m/s 755 mmHg 66%
    18:00 +21°C° 0 mm 5 m/s 756 mmHg 66%
    19:00 +20°C° 0 mm 4 m/s 756 mmHg 66%
    20:00 +19°C° 0 mm 4 m/s 756 mmHg 66%
    21:00 +18°C° 0 mm 4 m/s 757 mmHg 66%
    22:00 +17°C° 0 mm 4 m/s 757 mmHg 67%
    23:00 +15°C° 0 mm 4 m/s 757 mmHg 69%

    21 Agosto, Terça-feira

    Tempo Temperatura Precipitação Vento Pressão Humidade
    00:00 +15°C° 0 mm 4 m/s 758 mmHg 72%
    01:00 +15°C° 0 mm 4 m/s 758 mmHg 74%
    02:00 +14°C° 0 mm 4 m/s 758 mmHg 77%
    03:00 +14°C° 0 mm 3 m/s 759 mmHg 80%
    04:00 +13°C° 0 mm 3 m/s 759 mmHg 82%
    05:00 +14°C° 0 mm 3 m/s 759 mmHg 80%
    06:00 +15°C° 0 mm 4 m/s 760 mmHg 78%
    07:00 +15°C° 0 mm 4 m/s 760 mmHg 76%
    08:00 +18°C° 0 mm 4 m/s 760 mmHg 71%
    09:00 +19°C° 0 mm 4 m/s 761 mmHg 65%
    10:00 +20°C° 0 mm 3 m/s 761 mmHg 59%
    11:00 +21°C° 0 mm 3 m/s 761 mmHg 55%
    12:00 +22°C° 0 mm 3 m/s 761 mmHg 51%
    13:00 +22°C° 0 mm 3 m/s 761 mmHg 47%
    14:00 +24°C° 0 mm 3 m/s 761 mmHg 47%
    15:00 +24°C° 0 mm 3 m/s 761 mmHg 47%
    16:00 +24°C° 0 mm 3 m/s 761 mmHg 47%
    17:00 +21°C° 0 mm 3 m/s 761 mmHg 54%
    18:00 +19°C° 0 mm 2 m/s 761 mmHg 61%
    19:00 +18°C° 0 mm 2 m/s 761 mmHg 68%
    20:00 +17°C° 0 mm 2 m/s 761 mmHg 72%
    21:00 +16°C° 0 mm 2 m/s 761 mmHg 75%
    22:00 +15°C° 0 mm 2 m/s 761 mmHg 79%
    23:00 +15°C° 0 mm 2 m/s 761 mmHg 79%

    22 Agosto, Quarta-feira

    Tempo Temperatura Precipitação Vento Pressão Humidade
    00:00 +14°C° 0 mm 1 m/s 761 mmHg 79%
    01:00 +14°C° 0 mm 1 m/s 761 mmHg 80%
    02:00 +14°C° 0 mm 2 m/s 761 mmHg 80%
    03:00 +14°C° 0 mm 2 m/s 761 mmHg 80%
    04:00 +14°C° 0 mm 2 m/s 761 mmHg 81%
    05:00 +15°C° 0 mm 2 m/s 761 mmHg 77%
    06:00 +16°C° 0 mm 2 m/s 761 mmHg 74%
    07:00 +17°C° 0 mm 2 m/s 761 mmHg 71%
    08:00 +19°C° 0 mm 2 m/s 761 mmHg 63%
    09:00 +21°C° 0 mm 2 m/s 761 mmHg 55%
    10:00 +25°C° 0 mm 3 m/s 760 mmHg 47%
    11:00 +26°C° 0 mm 3 m/s 760 mmHg 44%
    12:00 +27°C° 0 mm 3 m/s 760 mmHg 40%
    13:00 +28°C° 0 mm 3 m/s 759 mmHg 37%
    14:00 +28°C° 0 mm 2 m/s 759 mmHg 36%
    15:00 +28°C° 0 mm 2 m/s 758 mmHg 36%
    16:00 +28°C° 0 mm 2 m/s 758 mmHg 35%
    17:00 +27°C° 0 mm 2 m/s 758 mmHg 41%
    18:00 +25°C° 0 mm 1 m/s 758 mmHg 46%
    19:00 +23°C° 0 mm 1 m/s 757 mmHg 51%
    20:00 +22°C° 0 mm 1 m/s 757 mmHg 53%
    21:00 +21°C° 0 mm 1 m/s 758 mmHg 54%
    22:00 +20°C° 0 mm 1 m/s 758 mmHg 56%
    23:00 +20°C° 0 mm 1 m/s 757 mmHg 57%

    23 Agosto, Quinta-feira

    Tempo Temperatura Precipitação Vento Pressão Humidade
    00:00 +20°C° 0 mm 1 m/s 757 mmHg 58%
    01:00 +19°C° 0 mm 1 m/s 757 mmHg 59%
    02:00 +19°C° 0 mm 1 m/s 757 mmHg 60%
    03:00 +19°C° 0 mm 1 m/s 757 mmHg 60%
    04:00 +18°C° 0 mm 1 m/s 757 mmHg 61%
    05:00 +19°C° 0 mm 1 m/s 756 mmHg 59%
    06:00 +21°C° 0 mm 1 m/s 756 mmHg 58%
    07:00 +22°C° 0 mm 1 m/s 756 mmHg 56%
    08:00 +24°C° 0 mm 1 m/s 756 mmHg 51%
    09:00 +26°C° 0 mm 1 m/s 756 mmHg 46%
    10:00 +28°C° 0 mm 1 m/s 756 mmHg 40%
    11:00 +29°C° 0 mm 1 m/s 756 mmHg 39%
    12:00 +29°C° 0 mm 2 m/s 755 mmHg 37%
    13:00 +30°C° 0 mm 2 m/s 755 mmHg 36%
    14:00 +30°C° 0 mm 2 m/s 754 mmHg 36%
    15:00 +30°C° 0 mm 3 m/s 754 mmHg 37%
    16:00 +30°C° 0 mm 3 m/s 753 mmHg 37%
    17:00 +28°C° 0 mm 3 m/s 753 mmHg 42%
    18:00 +27°C° 0 mm 3 m/s 753 mmHg 47%
    19:00 +25°C° 0 mm 2 m/s 752 mmHg 51%
    20:00 +25°C° 0 mm 3 m/s 752 mmHg 52%
    21:00 +24°C° 0 mm 3 m/s 752 mmHg 53%
    22:00 +22°C° 0 mm 3 m/s 752 mmHg 54%
    23:00 +22°C° 0 mm 3 m/s 751 mmHg 55%
    Mostrar mais